Date,TemperatureHighF,TemperatureAvgF,TemperatureLowF,DewpointHighF,DewpointAvgF,DewpointLowF,HumidityHigh,HumidityAvg,HumidityLow,PressureMaxIn,PressureMinIn,WindSpeedMaxMPH,WindSpeedAvgMPH,GustSpeedMaxMPH,PrecipitationSumIn
2013-1-1,39.2,38.0,36.4,32.1,30.7,29.9,83,75,72,30.01,29.95,7,1,10,0.00
2013-1-2,36.9,32.5,27.6,30.2,21.4,14.2,79,64,50,30.23,29.99,10,1,14,0.00
2013-1-3,38.0,30.0,23.6,22.9,18.9,14.0,76,64,48,30.26,30.15,6,0,9,0.00
2013-1-4,42.7,34.3,27.1,24.3,21.6,19.9,75,60,46,30.22,30.11,11,1,16,0.00
2013-1-5,45.4,36.3,28.3,27.1,23.0,19.8,73,59,42,30.39,30.15,6,0,12,0.00
2013-1-6,49.9,41.2,32.8,32.2,29.5,25.9,82,64,46,30.19,30.02,10,0,14,0.00
2013-1-7,41.2,39.9,38.3,33.0,29.7,26.4,73,67,62,30.39,30.15,8,1,13,0.00
2013-1-20,57.4,43.6,31.4,27.8,17.4,11.9,53,36,22,30.07,29.84,10,2,24,0.00
2013-1-21,45.7,34.2,28.3,25.4,18.5,13.3,64,53,38,30.08,29.79,16,2,16,0.00
2013-1-22,28.1,18.7,12.0,15.5,1.4,-3.0,64,46,32,30.30,29.95,14,2,18,0.00
2013-1-23,24.3,14.6,9.8,4.1,2.2,0.8,71,59,36,30.36,30.25,10,1,16,0.00
2013-1-24,25.3,19.3,14.3,14.8,8.2,2.4,87,63,42,30.54,30.22,12,1,19,0.01
2013-1-25,21.5,18.0,14.0,17.0,9.0,0.8,87,68,51,30.53,30.09,7,1,13,0.00
2013-1-26,32.2,26.4,20.4,27.4,21.9,17.1,89,83,73,30.44,30.09,6,0,10,0.00
2013-1-27,37.1,27.9,23.8,23.6,18.8,16.0,83,69,54,30.60,30.44,10,1,11,0.00
2013-1-28,48.0,37.9,32.1,42.5,36.0,30.8,97,93,81,30.34,30.06,19,4,20,0.00
2013-1-30,57.1,55.9,55.3,55.4,54.8,54.4,97,96,94,29.50,29.20,5,0,11,1.42
2013-1-31,56.3,40.3,26.9,55.7,28.1,14.6,98,63,38,29.90,29.10,16,3,21,0.41
2013-2-1,30.1,24.4,14.6,24.2,11.4,4.4,88,58,40,30.40,29.80,20,2,25,0.02
2013-2-2,28.7,21.4,13.6,24.5,13.1,5.0,91,71,52,30.40,30.02,10,1,17,0.00
2013-2-3,32.3,28.8,24.9,28.5,24.6,14.5,91,85,53,30.01,29.83,15,1,19,0.00
2013-2-4,35.2,29.0,20.1,22.4,17.1,13.0,75,61,49,30.11,29.89,14,1,18,0.01
2013-2-5,33.8,31.1,29.9,25.7,23.3,21.6,77,73,67,29.92,29.85,3,0,12,0.00
2013-2-7,35.7,35.5,35.1,29.1,27.9,27.1,78,74,71,30.26,30.20,3,0,4,0.00
2013-2-8,40.0,34.9,31.2,35.9,30.9,23.0,95,86,66,30.20,29.76,15,2,30,0.25
2013-2-9,41.2,33.2,28.3,23.6,19.6,15.4,73,58,40,30.39,29.92,15,4,22,0.00
2013-2-10,44.5,35.0,25.7,26.0,19.3,15.8,70,54,36,30.48,30.22,9,1,13,0.00
2013-2-11,56.7,45.0,33.9,50.5,39.6,25.9,97,84,32,30.23,29.72,7,2,16,0.09
2013-2-12,56.4,47.8,37.9,32.5,28.8,25.0,67,48,34,29.98,29.81,14,2,26,0.00
2013-2-13,42.8,36.7,33.0,34.0,29.6,25.8,95,76,60,29.94,29.66,4,1,9,0.08
2013-2-14,48.8,39.0,32.2,32.8,30.0,27.5,95,71,47,30.01,29.78,7,1,15,0.06
2013-2-15,59.9,44.1,33.8,39.8,32.6,27.5,94,67,38,30.02,29.88,15,2,19,0.13
2013-2-16,36.6,33.2,26.8,32.8,26.7,15.6,96,78,57,30.00,29.86,9,2,14,0.00
2013-2-17,29.6,25.3,22.1,17.5,11.9,6.1,74,57,41,30.22,29.86,15,3,24,0.00
2013-2-18,37.7,23.4,19.3,14.3,8.9,6.9,63,54,35,30.39,30.22,10,2,17,0.00
2013-2-19,43.6,37.6,34.1,39.7,31.0,21.9,93,78,58,30.11,29.72,13,3,19,0.10
2013-2-20,39.0,31.7,22.8,25.2,17.2,10.2,66,55,41,30.17,29.84,15,3,19,0.00
2013-2-21,37.3,28.6,21.8,18.4,15.2,9.9,66,57,44,30.32,30.12,15,2,25,0.00
2013-2-22,32.0,29.9,27.9,28.6,23.1,17.3,90,76,62,30.38,30.20,6,1,12,0.03
2013-2-23,45.2,37.1,31.1,42.7,35.3,28.5,96,94,88,30.21,29.82,4,0,7,0.01
2013-2-24,51.6,40.6,30.2,39.3,30.7,19.1,100,71,42,30.13,29.80,21,2,21,0.00
2013-2-25,45.8,35.6,27.1,25.9,22.6,18.8,76,60,43,30.22,30.12,7,1,15,0.00
2013-2-26,41.4,35.9,30.9,40.5,31.0,23.1,97,83,64,30.22,29.61,9,1,15,1.16
2013-2-27,57.4,45.8,37.5,44.3,36.9,32.0,96,74,48,29.69,29.54,12,2,15,0.01
2013-2-28,44.9,40.9,35.7,38.7,30.7,26.5,92,68,52,29.74,29.63,10,1,15,0.02
2013-3-1,42.2,38.2,33.7,30.9,27.8,23.9,74,66,55,29.90,29.72,12,2,16,0.00
2013-3-2,35.3,31.6,28.8,23.8,21.6,18.1,75,67,59,29.90,29.82,11,2,15,0.00
2013-3-3,40.2,32.3,26.2,22.2,20.0,18.2,77,61,43,29.91,29.81,12,2,21,0.00
2013-3-5,51.9,45.3,32.9,30.7,23.3,17.4,90,44,26,30.05,29.79,9,1,14,0.00
2013-3-6,32.9,32.3,31.8,31.6,30.8,30.0,95,94,90,29.79,29.62,8,0,13,0.00
2013-3-7,46.3,40.1,32.6,30.9,28.9,27.8,83,65,50,30.17,30.09,13,2,20,0.30
2013-3-8,45.2,38.4,30.6,31.0,28.3,26.0,84,68,53,30.29,30.14,15,3,22,0.00
2013-3-9,56.1,44.0,34.0,32.1,28.2,25.6,72,55,34,30.35,30.26,14,3,16,0.00
2013-3-10,64.4,50.7,39.4,33.6,28.8,24.6,69,45,27,30.31,30.19,10,1,14,0.00
2013-3-11,58.1,48.7,37.8,49.8,42.4,31.2,94,79,59,30.22,29.90,10,1,14,0.00
2013-3-12,55.7,50.4,37.1,54.1,44.0,30.0,97,80,60,29.94,29.71,14,3,19,1.09
2013-3-13,48.7,39.2,31.6,31.6,26.3,20.2,78,61,35,30.07,29.90,14,2,18,0.00
2013-3-14,44.0,35.6,29.4,22.8,19.0,16.2,72,51,35,30.14,30.03,18,3,27,0.00
2013-3-15,57.5,43.8,30.1,35.6,25.6,18.1,67,50,32,30.09,29.78,12,2,19,0.00
2013-3-16,61.2,47.3,35.3,47.0,37.7,32.1,88,70,58,29.90,29.61,11,2,16,0.00
2013-3-17,37.5,35.8,32.0,32.3,28.9,24.7,92,77,61,30.27,29.90,9,1,11,0.00
2013-3-18,36.6,32.4,29.6,32.4,30.6,28.0,96,93,77,30.31,29.89,3,0,6,0.36
2013-3-19,59.1,43.7,32.6,44.8,28.1,9.1,97,63,18,29.91,29.72,15,2,26,0.17
2013-3-20,52.6,42.5,31.6,28.2,15.9,10.6,69,35,23,29.99,29.75,15,2,22,0.00
2013-3-21,36.2,31.6,26.1,26.7,16.3,10.1,80,54,38,29.90,29.77,15,3,22,0.00
2013-3-22,46.5,34.9,24.5,21.3,17.3,11.5,65,49,34,30.01,29.88,15,2,23,0.00
2013-3-23,52.4,40.1,27.8,25.4,22.4,19.9,74,51,30,30.04,29.91,10,2,21,0.00
2013-3-24,40.9,35.7,31.7,30.6,24.6,21.1,93,65,49,30.00,29.65,7,1,10,0.00
2013-3-25,38.0,33.9,31.5,34.1,31.9,30.2,100,93,84,29.71,29.53,5,0,12,0.43
2013-3-26,47.2,38.9,31.2,35.0,30.8,26.8,96,75,46,30.01,29.71,14,1,17,0.03
2013-3-27,48.8,40.2,34.2,34.3,28.8,26.3,77,64,48,30.13,30.00,13,2,22,0.01
2013-3-28,49.3,39.9,32.7,33.0,29.3,26.1,79,67,48,30.24,30.08,13,1,20,0.00
2013-3-29,54.2,44.1,35.0,35.6,30.6,26.8,84,61,39,30.26,30.15,10,1,15,0.00
2013-3-30,58.7,48.7,40.7,31.7,28.4,25.8,62,46,30,30.23,30.10,10,1,21,0.00
2013-3-31,49.2,45.5,41.4,47.4,38.5,27.4,96,78,48,30.11,29.75,5,0,11,0.05
2013-4-1,65.4,49.2,36.4,44.6,37.5,24.2,94,66,40,29.98,29.74,14,2,23,0.01
2013-4-2,49.1,38.6,30.1,24.1,17.8,13.9,63,45,25,30.19,29.99,14,1,18,0.00
2013-4-3,50.8,38.9,29.3,19.5,16.9,12.9,61,43,22,30.39,30.19,16,2,18,0.00
2013-4-4,48.7,37.7,26.5,34.0,17.8,12.7,91,47,27,30.41,30.08,8,1,11,0.10
2013-4-5,64.8,47.6,35.5,38.4,32.2,24.1,95,62,27,30.08,29.82,13,2,19,0.12
2013-4-6,56.2,45.5,35.3,26.9,23.6,19.6,61,43,24,30.32,30.06,10,2,14,0.00
2013-4-7,69.5,53.2,35.1,45.0,36.9,26.1,79,56,39,30.26,29.97,16,3,24,0.00
2013-4-8,82.4,68.9,53.8,51.6,47.1,43.9,71,48,29,30.06,29.92,12,2,17,0.00
2013-4-9,87.0,74.5,62.9,57.2,53.7,50.2,66,50,33,30.06,29.90,13,2,16,0.00
2013-4-10,92.8,80.2,66.3,60.4,55.7,49.7,59,44,31,29.94,29.75,13,2,20,0.00
2013-4-11,88.2,74.4,58.3,62.5,57.7,53.1,84,58,35,29.85,29.69,15,1,16,0.00
2013-4-12,75.9,60.4,52.5,66.8,56.8,50.2,98,89,68,29.76,29.54,9,1,22,0.66
2013-4-13,69.7,56.9,45.0,49.6,39.5,31.6,86,55,32,29.94,29.74,10,1,16,0.00
2013-4-14,67.3,56.1,45.5,43.9,38.7,32.4,68,53,39,30.13,29.94,11,1,13,0.00
2013-4-15,65.3,58.1,53.6,52.4,48.2,43.7,79,70,60,30.26,30.11,9,0,13,0.00
2013-4-16,75.8,63.5,54.4,60.6,55.6,49.9,92,77,59,30.29,30.10,13,2,20,0.00
2013-4-17,74.6,65.7,58.8,63.9,59.7,56.4,98,82,65,30.21,30.10,7,1,17,0.17
2013-4-18,76.5,64.7,58.6,65.5,58.9,56.6,98,83,57,30.19,29.97,11,0,15,0.05
2013-4-19,75.1,64.6,49.5,66.9,60.5,48.1,96,87,71,29.97,29.58,10,1,31,0.98
2013-4-20,58.7,50.6,41.5,48.0,33.7,27.5,95,55,34,30.33,29.75,14,2,21,0.01
2013-4-21,52.9,45.0,37.1,30.9,27.4,23.6,69,51,34,30.59,30.33,10,1,10,0.00
2013-4-22,57.9,46.8,38.1,38.4,34.8,28.4,84,64,44,30.56,30.39,10,1,11,0.00
2013-4-23,56.9,48.4,42.9,45.8,40.9,35.8,86,76,64,30.39,30.11,3,0,6,0.00
2013-4-24,77.5,60.8,43.8,57.9,50.3,41.9,96,71,46,30.11,29.78,13,1,20,0.00
2013-4-25,58.9,48.4,43.2,47.1,35.9,32.7,68,62,48,30.27,29.97,14,2,21,0.00
2013-4-26,63.5,59.0,52.8,40.8,36.8,34.0,54,44,36,30.45,30.34,4,0,11,0.00
2013-4-27,73.1,59.8,47.9,45.7,41.9,35.1,78,54,33,30.40,30.26,5,0,13,0.00
2013-4-28,59.4,53.4,47.7,52.4,45.9,40.3,93,77,54,30.27,30.12,4,0,10,0.08
2013-4-29,57.6,54.1,51.7,56.9,52.9,49.6,98,96,88,30.15,30.03,6,0,12,0.47
2013-4-30,56.9,54.4,50.8,56.3,53.6,49.4,98,98,95,30.28,30.08,4,0,6,0.03
2013-5-1,69.8,58.3,48.4,49.9,44.1,36.4,96,63,31,30.42,30.27,4,0,9,0.01
2013-5-2,67.2,55.5,46.0,49.8,46.3,43.1,92,73,46,30.43,30.30,5,0,10,0.00
2013-5-3,69.9,56.3,46.2,51.5,44.9,39.4,90,68,42,30.37,30.27,9,0,11,0.00
2013-5-4,67.0,54.9,43.5,46.7,43.4,39.6,89,68,44,30.32,30.17,6,0,12,0.00
2013-5-5,61.3,51.9,42.5,45.2,41.7,38.5,90,70,49,30.23,30.13,5,0,9,0.00
2013-5-6,58.4,53.2,48.2,56.6,50.5,44.5,96,91,84,30.17,30.03,2,0,7,0.02
2013-5-7,60.9,58.1,54.8,60.3,57.4,53.6,100,98,96,30.04,29.90,4,0,12,1.63
2013-5-8,67.1,57.4,53.2,61.5,55.4,52.5,99,94,73,30.00,29.91,1,0,7,0.76
2013-5-9,72.6,59.8,48.8,64.0,55.3,47.9,100,87,61,30.01,29.91,10,0,11,0.00
2013-5-10,85.1,71.1,60.7,66.7,59.4,54.5,96,69,43,30.00,29.83,9,0,13,0.66
2013-5-11,75.6,64.8,60.6,68.8,62.5,58.3,98,93,69,29.88,29.69,5,0,12,0.19
2013-5-12,62.4,56.4,44.3,58.7,42.5,31.7,93,63,33,30.03,29.74,6,1,16,0.00
2013-5-13,58.9,48.7,41.0,36.9,32.7,27.1,80,56,30,30.17,30.02,7,0,15,0.00
2013-5-14,63.4,52.4,41.0,44.6,37.0,31.3,77,57,35,30.21,30.03,9,0,10,0.00
2013-5-15,83.6,65.8,51.6,67.3,54.3,42.8,80,67,53,30.03,29.68,4,0,12,0.00
2013-5-16,82.3,73.7,67.2,65.7,59.7,53.5,77,62,47,29.92,29.75,6,0,13,0.00
2013-5-17,84.0,72.3,63.5,61.4,57.7,53.6,79,62,41,30.11,29.91,3,0,6,0.00
2013-5-18,66.9,60.2,58.1,58.7,56.9,53.6,97,89,68,30.21,30.10,2,0,4,0.15
2013-5-19,70.1,62.6,57.5,67.5,61.7,56.9,99,97,90,30.20,30.07,0,0,5,0.33
2013-5-20,77.6,69.2,63.6,71.2,66.7,62.8,99,92,76,30.10,29.96,5,0,9,0.00
2013-5-21,85.0,73.3,65.5,74.4,68.9,64.4,98,87,68,29.98,29.85,4,0,10,0.00
2013-5-22,89.9,76.8,64.4,75.6,70.6,62.9,98,83,59,29.91,29.80,5,0,12,0.01
2013-5-23,77.8,67.9,62.1,71.1,65.7,60.7,99,93,76,29.88,29.74,5,0,18,0.63
2013-5-24,62.1,54.5,44.8,61.2,48.0,33.7,98,80,60,30.16,29.73,13,2,17,0.01
2013-5-25,62.7,52.2,41.8,44.1,38.2,33.0,76,60,41,30.20,30.10,13,2,17,0.01
2013-5-26,69.7,57.5,44.8,44.8,40.1,36.5,81,55,31,30.22,30.11,10,0,12,0.00
2013-5-27,68.5,61.0,53.5,53.8,46.3,40.6,73,59,42,30.28,30.17,3,0,9,0.00
2013-5-28,80.0,66.1,53.2,71.3,59.7,47.1,94,81,65,30.19,30.05,3,0,6,0.05
2013-5-29,90.3,77.2,67.2,73.1,67.3,63.6,91,73,47,30.11,30.05,5,0,16,0.00
2013-5-30,93.1,79.0,66.5,74.0,68.2,63.0,92,71,45,30.16,30.08,9,0,14,0.00
2013-5-31,90.5,77.7,66.5,70.3,66.3,62.3,92,70,47,30.12,30.00,7,0,14,0.00
2013-6-1,92.0,79.1,66.9,74.0,68.3,63.2,91,71,52,30.01,29.89,5,0,12,0.00
2013-6-2,81.6,72.7,67.8,73.3,67.8,64.3,98,85,73,29.89,29.82,6,0,16,0.56
2013-6-3,79.2,69.9,63.9,70.6,65.8,58.8,99,88,69,29.95,29.81,3,0,7,0.06
2013-6-4,72.8,64.4,56.6,58.8,50.6,45.4,86,62,41,30.12,29.94,3,0,11,0.00
2013-6-5,78.2,68.4,59.6,62.9,56.3,49.7,85,66,48,30.16,30.03,4,0,9,0.00
2013-6-6,68.2,64.0,59.8,64.8,59.3,50.8,98,85,67,30.06,29.84,1,0,6,1.01
2013-6-7,67.9,65.3,63.2,67.2,64.7,62.6,99,98,96,29.84,29.60,6,0,10,0.43
2013-6-8,76.9,69.0,63.3,67.3,62.9,58.1,97,82,64,30.08,29.72,4,0,9,0.00
2013-6-9,79.7,70.4,64.4,71.3,66.1,59.3,98,87,72,30.17,30.07,2,0,5,0.57
2013-6-10,75.7,71.0,67.6,74.5,70.3,66.8,100,98,88,30.09,29.77,4,0,14,1.35
2013-6-11,82.0,71.9,64.4,69.3,65.9,63.8,99,83,60,29.84,29.78,6,0,12,0.01
2013-6-12,86.3,77.4,67.8,72.5,67.6,62.7,87,73,54,29.85,29.76,4,0,16,0.00
2013-6-13,84.6,72.5,65.4,74.1,67.1,57.5,96,84,66,29.78,29.45,7,1,18,0.15
2013-6-14,75.2,67.6,62.1,60.6,56.6,53.6,81,68,49,29.98,29.59,5,1,13,0.00
2013-6-15,80.7,71.5,62.5,63.2,58.8,52.0,81,65,49,30.07,29.97,4,0,12,0.00
2013-6-16,82.9,74.3,67.3,71.1,63.6,54.2,80,70,51,30.01,29.87,5,0,10,0.00
2013-6-17,86.5,75.7,67.5,72.1,67.0,62.6,93,75,58,29.94,29.86,9,0,12,0.06
2013-6-18,70.4,68.2,62.3,69.5,66.7,60.9,97,95,90,29.89,29.78,1,0,3,0.45
2013-6-19,73.2,66.9,62.5,66.1,63.2,60.8,98,88,73,30.14,29.87,2,0,4,0.01
2013-6-20,79.8,69.6,63.5,66.0,62.3,56.2,96,79,59,30.25,30.14,4,0,10,0.00
2013-6-21,83.9,70.5,58.9,64.3,58.0,51.1,84,66,45,30.29,30.20,5,0,6,0.00
2013-6-22,86.6,74.0,61.8,71.9,66.6,60.3,97,79,60,30.23,30.11,4,0,7,0.00
2013-6-23,82.3,74.3,67.4,73.5,69.9,65.9,97,87,70,30.16,30.05,3,0,6,0.00
2013-6-24,91.1,75.3,68.7,75.2,70.2,65.9,97,85,51,30.12,30.02,4,0,16,0.08
2013-6-25,90.3,79.7,68.9,75.9,71.1,63.2,94,76,58,30.01,29.88,5,0,14,0.00
2013-6-26,91.0,76.6,70.0,77.2,69.8,63.4,96,81,58,29.90,29.80,3,0,7,0.07
2013-6-27,77.0,71.4,66.8,73.7,69.5,65.7,98,94,88,29.81,29.61,2,0,9,0.00
2013-6-28,87.9,73.9,66.6,75.9,69.8,65.4,97,88,61,29.62,29.46,4,0,10,1.04
2013-6-29,87.2,75.9,65.8,69.8,66.1,63.0,97,74,47,29.68,29.50,5,0,7,0.00
2013-6-30,86.8,75.9,69.0,77.0,70.9,66.5,96,85,69,29.83,29.66,5,0,9,0.00
2013-7-1,79.7,73.6,69.3,73.9,70.7,67.9,97,91,80,29.95,29.82,5,0,7,0.02
2013-7-2,80.6,74.2,71.1,74.4,72.1,70.5,98,94,80,30.15,29.95,9,0,10,0.15
2013-7-3,81.3,73.9,70.4,77.4,72.8,69.8,100,97,85,30.21,30.14,5,0,7,0.62
2013-7-4,87.5,77.7,71.8,78.1,73.4,71.2,99,88,71,30.23,30.14,9,0,14,0.00
2013-7-5,87.0,78.4,70.2,77.1,73.1,69.0,98,85,70,30.21,30.10,6,0,10,0.00
2013-7-6,93.2,80.4,71.5,79.3,73.5,70.1,97,81,58,30.16,30.05,6,0,13,0.00
2013-7-7,91.9,78.5,67.9,78.1,72.3,67.0,97,82,60,30.09,29.97,9,0,14,0.26
2013-7-8,81.8,73.9,68.0,74.2,69.8,67.3,99,88,68,30.09,30.02,5,0,9,0.02
2013-7-9,82.9,77.1,71.7,76.6,71.8,67.5,91,84,74,30.09,29.98,3,0,11,0.00
2013-7-10,83.7,77.1,73.1,77.8,73.4,69.7,98,89,74,29.99,29.84,8,0,15,0.01
2013-7-11,81.7,75.7,69.7,72.7,70.1,67.2,96,83,69,29.91,29.82,4,0,10,0.32
2013-7-12,71.0,67.6,64.3,69.0,66.1,63.3,98,95,88,30.04,29.90,4,0,6,1.29
2013-7-13,82.2,73.4,67.4,74.3,70.1,65.8,98,90,71,30.25,30.03,0,0,5,0.00
2013-7-14,88.7,78.5,72.2,77.3,73.7,71.2,99,86,64,30.33,30.25,3,0,7,0.02
2013-7-15,91.7,80.8,72.6,77.9,73.7,70.8,96,81,60,30.29,30.17,6,0,11,0.00
2013-7-16,92.0,83.3,77.6,79.6,73.9,70.3,82,74,62,30.23,30.15,3,0,7,0.00
2013-7-17,91.4,83.6,78.8,78.5,73.2,69.1,81,71,54,30.20,30.07,4,0,9,0.00
2013-7-18,94.3,85.1,79.4,80.3,76.0,69.8,83,75,58,30.10,29.98,4,0,7,0.00
2013-7-19,96.0,85.6,77.6,82.0,76.2,67.2,87,74,60,29.99,29.84,7,0,11,0.00
2013-7-20,92.1,81.6,75.6,79.3,73.5,67.9,88,77,63,29.88,29.77,6,0,11,0.00
2013-7-21,91.5,77.6,70.1,76.2,71.8,68.8,98,84,55,29.92,29.84,2,0,5,0.10
2013-7-22,87.5,76.3,69.4,77.1,72.3,67.9,98,88,68,29.91,29.74,5,0,9,0.21
2013-7-23,83.3,75.4,69.8,74.7,70.9,68.6,99,87,68,29.75,29.64,6,0,10,0.01
2013-7-24,78.4,73.8,69.8,69.9,66.4,59.5,89,78,64,29.90,29.67,5,0,6,0.00
2013-7-25,75.2,68.1,60.2,61.5,57.8,52.5,83,70,55,30.03,29.90,4,0,7,0.00
2013-7-26,82.8,71.2,63.1,66.3,62.1,59.3,89,74,51,30.08,30.01,1,0,5,0.00
2013-7-27,85.5,71.1,63.7,74.5,67.5,61.8,98,89,68,30.03,29.91,5,0,11,0.33
2013-7-28,81.4,72.7,67.7,73.6,69.9,66.4,99,91,70,29.97,29.87,4,0,7,0.30
2013-7-29,79.9,68.7,59.1,66.5,60.8,57.8,97,78,48,30.16,29.97,5,0,10,0.00
2013-7-30,81.3,71.0,62.5,67.1,61.4,56.0,83,72,56,30.22,30.13,1,0,5,0.00
2013-7-31,77.3,69.9,64.1,70.9,66.2,61.4,98,89,78,30.13,30.00,4,0,14,0.41
2013-8-1,81.2,71.7,66.8,74.8,69.0,65.4,99,92,73,30.00,29.80,4,0,6,0.08
2013-8-2,85.4,74.8,64.8,70.5,66.7,62.7,94,77,54,29.96,29.85,5,0,13,0.00
2013-8-3,78.5,71.1,67.1,70.4,65.3,61.1,96,83,68,29.96,29.90,1,0,6,0.03
2013-8-4,79.6,70.4,62.8,65.5,61.1,55.4,93,74,52,30.03,29.90,5,0,12,0.00
2013-8-5,78.5,69.2,61.9,62.5,57.9,55.1,81,68,49,30.10,30.00,2,0,5,0.00
2013-8-6,72.9,68.4,64.5,68.8,65.0,59.3,98,89,73,30.06,29.98,2,0,7,0.07
2013-8-7,80.6,72.3,67.5,74.9,70.2,66.5,99,93,78,30.05,29.97,5,0,10,0.09
2013-8-8,82.1,75.0,70.2,75.9,72.8,69.3,98,93,80,30.00,29.95,4,0,11,0.03
2013-8-9,86.7,78.4,72.4,79.1,74.4,71.4,99,88,74,29.95,29.85,9,0,17,0.01
2013-8-10,79.8,74.9,71.7,72.2,67.6,62.5,89,79,58,30.07,29.93,5,0,6,0.00
2013-8-11,84.8,75.7,69.5,71.1,68.3,63.5,94,79,57,30.10,29.99,2,0,9,0.00
2013-8-12,86.5,77.1,69.6,74.2,70.3,67.9,99,81,59,30.01,29.89,1,0,7,0.05
2013-8-13,82.0,73.3,67.7,73.7,70.3,66.5,98,91,69,29.89,29.73,3,0,12,0.61
2013-8-14,72.7,63.8,54.0,66.4,54.7,50.0,96,73,53,30.10,29.82,6,1,19,0.00
2013-8-15,75.8,65.5,57.9,57.9,53.7,50.8,84,67,45,30.18,30.09,4,0,7,0.00
2013-8-16,79.9,67.4,57.1,64.7,57.6,51.0,93,73,45,30.19,30.11,0,0,6,0.00
2013-8-17,78.9,69.5,60.5,63.1,59.1,55.0,89,70,52,30.26,30.18,2,0,6,0.00
2013-8-18,68.3,64.5,58.8,64.4,61.9,56.7,97,91,75,30.23,30.16,1,0,6,0.17
2013-8-19,73.5,66.2,60.1,68.8,64.0,59.0,98,93,83,30.18,30.07,4,0,5,0.00
2013-8-20,85.0,73.9,64.5,72.9,68.5,63.6,99,85,62,30.16,30.08,3,0,5,0.00
2013-8-21,88.3,75.9,68.6,76.4,71.2,67.3,98,86,65,30.17,30.05,3,0,12,0.04
2013-8-22,86.0,76.0,67.4,72.5,69.1,66.2,97,81,59,30.07,29.92,6,0,11,0.00
2013-8-23,74.1,69.2,64.5,68.0,65.4,62.5,97,88,78,30.10,29.92,4,0,5,0.61
2013-8-24,79.9,70.4,63.9,65.4,61.3,58.4,91,74,50,30.32,30.10,2,0,5,0.00
2013-8-25,82.7,70.6,61.9,68.4,62.3,57.4,97,77,48,30.40,30.25,2,0,6,0.00
2013-8-26,86.0,72.8,61.0,70.2,63.7,57.5,94,75,50,30.28,30.00,5,0,7,0.00
2013-8-27,85.9,78.3,70.4,75.2,69.9,63.4,84,76,66,30.00,29.87,5,0,11,0.00
2013-8-28,75.7,73.0,70.8,72.7,70.5,68.3,97,92,80,29.91,29.80,3,0,7,0.10
2013-8-29,80.8,74.0,70.7,72.6,70.1,68.4,98,88,72,30.00,29.82,3,0,6,0.00
2013-8-30,85.3,75.0,67.4,74.5,70.2,66.2,98,86,67,30.02,29.87,5,0,10,0.00
2013-8-31,91.0,78.1,69.5,77.2,71.8,67.4,95,82,60,29.88,29.78,1,0,11,0.00
2013-9-1,91.4,77.5,66.6,76.1,70.8,65.4,98,82,57,29.83,29.73,0,0,1,0.00
2013-9-2,89.5,78.4,70.1,74.4,71.3,67.5,94,80,58,29.81,29.71,4,0,7,0.00
2013-9-3,81.2,75.1,66.3,72.5,64.5,57.3,89,71,53,29.94,29.72,7,0,11,0.00
2013-9-4,80.1,69.0,57.7,62.7,57.7,53.6,92,69,42,30.08,29.94,5,0,10,0.00
2013-9-5,83.7,71.9,63.3,66.2,59.5,52.3,82,66,52,30.12,30.00,6,0,12,0.00
2013-9-6,76.4,65.2,57.3,53.4,50.3,47.6,75,59,44,30.25,30.12,3,0,6,0.00
2013-9-7,83.3,68.6,57.1,63.9,58.7,52.0,86,72,49,30.13,29.92,1,0,10,0.00
2013-9-8,85.9,74.9,65.2,69.3,64.5,57.5,94,71,54,30.03,29.86,5,0,10,0.00
2013-9-9,77.0,69.0,61.2,67.2,59.3,50.4,91,72,59,30.18,30.03,2,0,7,0.00
2013-9-10,93.4,77.4,65.7,76.5,70.6,64.4,97,81,57,30.16,30.07,1,0,6,0.00
2013-9-11,92.2,81.0,73.1,78.0,73.6,70.3,92,79,59,30.12,29.98,2,0,7,0.00
2013-9-12,93.0,76.7,69.5,77.2,70.6,66.0,93,83,56,29.98,29.74,6,0,16,0.01
2013-9-13,76.2,68.0,55.4,66.6,57.7,49.2,90,71,46,29.95,29.69,8,0,13,0.01
2013-9-14,69.0,57.9,49.4,50.0,46.7,44.7,87,68,45,30.16,29.94,6,0,11,0.00
2013-9-15,77.4,63.7,50.5,59.1,52.7,44.8,85,69,48,30.22,30.07,6,0,13,0.00
2013-9-16,68.4,64.1,59.4,59.6,57.9,55.3,95,81,67,30.22,30.02,5,0,11,0.06
2013-9-17,66.6,57.6,48.8,55.5,46.4,41.4,86,67,47,30.42,30.22,3,0,6,0.00
2013-9-18,72.1,58.7,49.3,53.6,48.5,41.8,95,71,48,30.34,30.17,4,0,7,0.00
2013-9-19,78.7,63.7,51.6,61.2,55.2,47.7,92,75,52,30.19,30.07,3,0,7,0.00
2013-9-20,80.0,67.1,56.5,65.2,60.4,54.6,95,81,60,30.08,29.94,1,0,10,0.00
2013-9-21,67.6,63.4,60.4,65.0,61.2,58.7,97,93,84,29.95,29.68,4,0,12,0.93
2013-9-22,70.6,60.9,53.3,59.4,55.3,49.2,100,83,61,29.95,29.72,6,0,10,0.00
2013-9-23,63.8,55.3,50.9,50.9,47.4,44.9,90,76,55,30.09,29.95,6,0,11,0.00
2013-9-24,70.6,59.4,50.7,54.9,49.4,45.4,85,71,54,30.11,29.95,6,0,7,0.00
2013-9-25,75.0,63.3,54.8,52.9,50.1,45.8,85,64,40,29.98,29.87,3,0,5,0.00
2013-9-26,75.6,64.4,56.6,55.3,52.5,48.7,82,66,46,30.06,29.90,3,0,6,0.00
2013-9-27,69.9,62.4,55.9,61.1,56.1,50.7,89,80,68,30.22,30.06,1,0,3,0.00
2013-9-28,65.9,60.3,55.7,56.8,54.6,51.7,92,82,69,30.30,30.20,1,0,5,0.00
2013-9-29,73.7,61.9,54.0,58.1,53.7,50.0,96,76,47,30.20,30.05,3,0,6,0.00
2013-9-30,76.4,63.7,55.5,61.1,56.4,53.0,93,78,55,30.08,29.97,4,0,7,0.00
2013-10-1,82.4,69.7,62.2,63.6,59.1,56.2,82,70,50,30.07,29.96,8,0,13,0.00
2013-10-2,84.6,72.1,63.2,64.7,60.7,57.7,84,69,47,30.07,29.99,6,0,11,0.00
2013-10-3,81.0,73.0,66.5,67.8,64.1,59.9,85,74,62,30.11,30.03,2,0,10,0.00
2013-10-4,85.4,73.6,64.4,68.6,64.8,61.6,93,76,52,30.07,30.00,4,0,10,0.00
2013-10-12,60.3,59.6,59.1,58.5,57.7,57.1,96,94,91,30.16,30.14,2,0,7,0.00
2013-10-13,59.5,57.8,56.6,58.3,56.7,55.7,97,96,93,30.31,30.15,4,0,6,0.28
2013-10-14,66.2,58.4,53.1,58.2,54.6,51.6,96,88,69,30.34,30.22,2,0,5,0.00
2013-10-15,69.9,60.2,52.5,57.8,53.6,50.0,96,80,56,30.23,30.08,1,0,5,0.00
2013-10-16,69.5,63.5,59.0,63.3,59.9,56.5,95,89,78,30.08,29.90,1,0,6,0.00
2013-10-17,75.3,65.0,58.7,65.8,61.4,51.7,97,89,68,29.90,29.71,5,0,14,0.01
2013-10-18,64.3,56.1,47.5,52.1,45.8,42.5,88,69,49,30.01,29.82,5,0,11,0.00
2013-10-19,62.9,55.6,48.6,56.9,50.8,44.7,95,84,71,30.00,29.77,4,0,10,0.00
2013-10-20,59.7,51.1,40.7,48.5,39.4,36.1,87,66,45,30.09,29.87,5,0,15,0.00
2013-10-21,67.3,53.9,41.9,50.2,42.7,38.0,90,68,41,30.14,29.94,6,0,16,0.00
2013-10-22,61.4,52.2,45.3,52.8,45.8,36.4,95,80,60,29.94,29.81,4,0,9,0.00
2013-10-23,55.1,48.1,41.1,39.3,36.0,32.1,85,64,47,29.90,29.67,5,0,14,0.00
2013-10-24,49.4,42.4,38.1,35.6,32.2,28.0,84,68,46,30.15,29.90,8,0,14,0.00
2013-10-25,52.3,42.3,36.0,35.4,31.7,29.6,81,67,49,30.33,30.13,9,1,15,0.00
2013-10-26,54.4,45.4,36.4,35.0,31.3,27.8,76,59,42,30.31,29.94,6,1,17,0.00
2013-10-27,58.4,49.9,43.3,40.2,37.0,34.2,77,62,45,30.14,29.96,5,0,17,0.00
2013-10-28,62.3,51.2,43.1,43.2,39.4,33.4,82,65,48,30.28,30.14,0,0,4,0.00
2013-10-29,61.3,52.9,44.9,45.5,41.5,37.4,78,66,50,30.38,30.27,2,0,5,0.00
2013-10-30,62.7,55.2,48.8,54.8,50.4,43.8,96,84,73,30.32,30.14,2,0,7,0.02
2013-10-31,67.0,60.0,54.6,60.3,56.9,53.3,97,90,77,30.17,29.75,8,0,17,0.00
2013-11-1,72.8,65.3,59.3,63.2,59.3,52.1,96,82,53,29.75,29.57,7,1,15,0.02
2013-11-2,65.9,57.4,49.2,53.9,45.5,38.1,79,65,48,29.86,29.64,8,1,13,0.00
2013-11-3,55.0,47.7,40.2,40.4,34.2,26.0,78,61,35,30.45,29.86,6,1,14,0.00
2013-11-4,43.4,37.7,32.2,27.2,24.3,21.5,67,59,46,30.64,30.45,6,0,7,0.00
2013-11-5,52.6,45.7,37.2,44.4,36.4,25.0,81,70,60,30.63,30.46,1,0,3,0.00
2013-11-6,67.0,55.7,47.5,53.0,48.8,43.5,91,78,60,30.46,30.04,7,0,14,0.00
2013-11-7,61.0,53.5,41.2,55.9,46.0,25.6,93,77,52,30.08,29.87,11,2,31,0.01
2013-11-8,49.4,40.8,35.0,32.1,27.9,25.3,75,61,41,30.32,30.08,9,1,15,0.00
2013-11-9,53.7,44.4,34.7,31.8,29.3,26.4,75,56,40,30.35,30.03,16,2,19,0.00
2013-11-10,62.7,50.5,39.5,38.8,31.4,27.5,63,49,30,30.24,29.96,10,2,20,0.00
2013-11-11,57.5,47.5,36.6,33.3,30.2,27.5,74,53,35,30.29,30.00,11,1,21,0.00
2013-11-12,51.8,38.9,27.8,38.4,24.1,16.0,75,56,42,30.42,29.97,11,2,16,0.00
2013-11-13,41.8,32.1,24.6,22.4,19.5,15.6,81,61,41,30.50,30.39,13,1,18,0.00
2013-11-14,57.7,42.2,27.8,26.5,20.5,12.6,64,43,28,30.40,30.22,7,0,10,0.00
2013-11-15,61.4,47.8,35.0,42.9,26.9,20.2,89,46,24,30.28,30.18,7,0,19,0.00
2013-11-16,50.1,47.7,43.1,48.7,46.2,41.4,96,95,89,30.32,30.21,3,0,5,0.00
2013-11-17,58.7,53.8,49.7,58.1,53.0,48.6,98,97,96,30.23,29.72,11,1,16,0.00
2013-11-18,66.6,57.2,45.3,59.6,39.4,26.9,98,56,23,29.94,29.69,13,2,26,0.16
2013-11-19,46.3,41.3,34.8,30.0,27.4,25.6,72,58,49,30.38,29.93,17,2,18,0.00
2013-11-20,45.0,37.0,32.5,28.8,24.8,22.2,79,62,43,30.57,30.37,9,1,10,0.00
2013-11-21,46.7,40.9,33.3,38.8,34.4,29.1,87,78,69,30.57,30.38,1,0,4,0.00
2013-11-22,63.8,55.4,42.7,53.7,48.4,38.0,90,78,67,30.38,30.00,12,1,23,0.00
2013-11-23,55.4,42.6,29.7,47.9,29.0,15.9,79,60,42,30.20,30.03,14,3,20,0.00
2013-11-24,30.4,25.1,19.5,16.0,7.8,4.5,64,48,35,30.55,30.20,13,2,20,0.00
2013-11-25,35.5,27.4,18.1,14.4,10.6,7.2,69,50,35,30.58,30.34,10,1,13,0.00
2013-11-26,37.3,33.1,31.5,36.2,27.0,14.3,96,80,46,30.34,29.61,13,2,19,0.04
2013-11-27,38.8,35.0,26.3,37.1,30.0,14.7,96,82,59,30.05,29.52,20,3,31,0.02
2013-11-28,35.8,29.7,23.4,21.8,18.2,13.7,72,62,50,30.48,30.05,15,1,19,0.00
2013-11-29,39.8,32.4,25.8,24.7,21.4,19.2,79,64,50,30.73,30.46,10,1,16,0.00
2013-11-30,35.5,30.0,25.1,23.7,21.0,17.8,78,69,57,30.73,30.38,5,0,7,0.00
2013-12-1,45.8,36.4,26.8,32.3,28.0,22.9,86,72,57,30.38,30.01,3,0,4,0.00
2013-12-2,47.5,42.0,39.0,38.2,34.5,31.7,85,75,63,30.01,29.87,1,0,4,0.00
2013-12-3,55.9,45.3,38.4,41.1,38.2,34.7,89,77,57,29.99,29.88,4,0,6,0.00
2013-12-4,56.8,48.3,39.5,49.8,43.5,36.6,92,84,71,30.07,29.99,4,0,6,0.00
2013-12-5,66.7,58.5,51.6,60.8,55.5,49.4,96,90,77,30.06,29.91,12,3,20,0.00
2013-12-6,64.2,47.5,36.9,62.4,45.7,35.3,96,94,87,30.16,29.86,18,5,23,0.15
2013-12-7,39.7,35.0,28.6,35.6,30.0,22.3,96,82,66,30.55,30.12,10,2,19,0.03
2013-12-8,30.0,26.7,24.6,28.7,23.1,19.5,95,86,74,30.59,30.31,7,1,12,0.00
2013-12-9,32.7,31.4,30.0,31.6,30.3,28.4,96,96,94,30.32,30.04,0,0,2,0.00
2013-12-10,35.1,31.1,24.9,33.6,29.0,22.3,97,92,78,30.23,30.00,6,0,11,0.02
2013-12-11,37.8,28.2,21.4,29.9,24.2,19.0,94,85,66,30.41,30.23,4,0,11,0.02
2013-12-12,30.6,25.5,21.6,24.2,17.0,12.2,86,70,47,30.45,30.26,7,1,13,0.00
2013-12-13,40.5,32.8,24.5,26.7,19.7,13.1,76,59,40,30.31,30.22,10,1,13,0.02
2013-12-14,36.0,34.2,32.3,32.8,29.1,22.7,96,82,62,30.32,29.72,10,1,14,0.00
2013-12-15,44.0,35.3,29.0,40.1,30.3,24.1,100,83,63,29.95,29.63,9,1,19,0.00
2013-12-16,35.0,32.4,30.1,28.1,26.1,23.8,84,77,70,30.19,29.95,8,0,9,0.02
2013-12-17,39.9,34.0,30.5,33.9,29.7,25.2,90,84,78,30.16,29.93,4,0,10,0.02
2013-12-18,40.0,32.9,27.5,29.8,24.8,22.1,93,73,52,30.22,30.00,10,1,16,0.02
2013-12-19,58.2,42.5,27.8,35.9,28.5,22.2,82,60,39,30.21,30.08,7,1,16,0.00
2013-12-20,57.7,51.7,41.3,41.4,34.7,29.4,68,53,41,30.11,29.99,14,3,22,0.00
2013-12-21,55.9,53.0,51.2,43.1,41.7,40.7,71,65,57,30.01,29.97,8,2,14,0.00
2013-12-29,46.9,42.6,39.1,44.1,40.6,37.1,96,93,82,30.03,29.55,9,1,15,1.21
2013-12-30,46.5,38.9,29.9,39.8,32.1,23.2,93,77,68,30.18,29.80,10,1,15,0.00
2013-12-31,44.0,32.7,26.9,30.0,22.4,18.1,80,66,46,30.33,30.11,13,2,17,0.00
2014-1-1,45.0,34.4,24.8,30.0,24.5,18.0,80,68,48,30.42,30.12,6,0,9,0.00
2014-1-2,34.3,31.9,28.5,31.9,28.3,25.1,100,87,75,30.11,29.63,5,0,9,0.00